Regional Weather Roundup
Issued by NWS

Home | Current Version | Previous Version | Text Only | Print | Product List | Glossary On
Versions: 1 2 3 4 5 6 7 8 9 10 11 12 13 14 15 16 17 18 19 20 21 22 23 24 25 26 27 28 29 30 31 32 33 34 35 36 37 38 39 40 41 42 43 44 45 46 47 48 49 50
000
ASUS42 KFFC 140703
RWRGA
WEATHER ROUNDUP FOR GEORGIA
NATIONAL WEATHER SERVICE PEACHTREE CITY GA
300 AM EDT MON JUL 14 2014

NOTE: "FAIR" INDICATES FEW OR NO CLOUDS BELOW 12,000 FEET WITH NO
SIGNIFICANT WEATHER AND/OR OBSTRUCTIONS TO VISIBILITY.

* = USE WITH CAUTION. THE STATIONS MARKED WITH AN ASTERISK MAY NOT
REPORT WEATHER SUCH AS PRECIPITATION, FOG, OR THUNDER AND ARE NOT
QUALITY CONTROLLED BY NWS.

THE REMARK "TC" DENOTES TEMPERATURE READING IN DEGREES CELSIUS.

GAZ001>058-140800-
NORTH GEORGIA

CITY           SKY/WX    TMP DP  RH WIND       PRES   REMARKS
ATLANTA        PTCLDY    75  70  84 SW3       30.06F
ATHENS         MOCLDY    75  68  78 CALM      30.06S
CHAMBLEE       PTCLDY    74  69  85 CALM      30.06F
PEACHTREE CITY CLEAR     72  70  93 CALM      30.06F
ROME           CLOUDY    75  73  93 CALM      30.03F
WEST ATLANTA   CLEAR     76  70  82 CALM      30.05F
GAINESVILLE    MOCLDY    76  68  76 SW5       30.09S
CARTERSVILLE   MOCLDY    73  70  90 CALM      30.05F


CITY           SKY/WX    TMP DP  RH WIND       PRES   REMARKS
DALTON*        PTCLDY    73  72  94 CALM      30.04S
MARIETTA       PTCLDY    76  71  83 W1        30.06F
$$

GAZ059>098-102>109-140800-
CENTRAL GEORGIA

CITY           SKY/WX    TMP DP  RH WIND       PRES   REMARKS
AUGUSTA-BUSH   CLEAR     72  70  93 SE6       30.04F
AUGUSTA-DANIEL CLEAR     77  73  87 S6        30.06F
COLUMBUS       PTCLDY    78  72  81 W3        30.05F
MACON          CLEAR     75  72  90 CALM      30.05F
ROBINS AFB     CLEAR     75  73  93 VRB1      30.04F


CITY           SKY/WX    TMP DP  RH WIND       PRES   REMARKS
LAGRANGE*      FOG       74  74  99 S7        30.06S VSB 1
SYLVANIA*      CLEAR     76  76  99 CALM      30.07S
MILLEDGEVILLE* CLEAR     72  72 100 CALM      30.05F
$$

GAZ099>101-110>166-140800-
SOUTH GEORGIA

CITY           SKY/WX    TMP DP  RH WIND       PRES   REMARKS
SAVANNAH       CLEAR     77  74  90 SW5       30.07F
VALDOSTA       MOCLDY    79  72  79 S5        30.09R
ALMA           CLEAR     75  73  93 S6        30.07S
ST SIMONS      PTCLDY    79  76  90 SW6       30.07F
FT STEWART     CLEAR     76  75  94 S6        30.06F
ALBANY         CLEAR     76  73  91 SW3       30.08F
HUNTER AFB     CLEAR     78  76  96 SW3       30.05S
MOODY AFB      PTCLDY    76  73  90 VRB1      30.09R
BRUNSWICK      CLEAR     79  73  83 CALM      30.08S


CITY           SKY/WX    TMP DP  RH WIND       PRES   REMARKS
BAINBRIDGE*    CLEAR     79  77  94 CALM      30.07S
MOULTRIE*      PTCLDY    77  73  88 CALM      30.08S
VIDALIA*         N/A     77  73  88 S6        30.07S
WAYCROSS*      CLEAR     79  78  96 SW6       30.07F
DOUGLAS*       CLEAR     77  73  88 SW3       30.09S
$$


USA.gov is the U.S. government's official web portal to all federal, state and local government web resources and services.